Other Public Products
Issued by NWS Grand Forks, ND

Home | Current Version | Previous Version | Graphics & Text | Print | Product List | Glossary On
Versions: 1 2 3 4 5 6 7 8 9 10 11 12 13 14 15 16 17 18 19 20 21 22 23 24 25 26 27 28 29 30 31 32 33 34 35 36 37 38 39 40 41 42 43 44 45 46 47 48 49 50
000
FPUS83 KFGF 080610
OPUFGF
PRAIRIE TO PINES WEATHER ROUNDUP
NATIONAL WEATHER SERVICE EASTERN NORTH DAKOTA/GRAND FORKS ND
1200 AM CST THU DEC 08 2016

 **SATELLITE DATA USED TO AUGMENT SKY COVER AT AUTOMATED STATIONS**
 *****  WEATHER ACROSS EASTERN NORTH DAKOTA  *****

CITY           SKY/WX    TMP DP  RH WIND       PRES   REMARKS
GRAND FORKS    LGT SNOW  19  15  84 NW23      30.27R FOG     WCI   2
6HR MIN TEMP:  19; 6HR MAX TEMP:  21; 6HR PCP:  0.02;

GRAND FORKS AF FLURRIES  18  13  80 N20G25    30.28R WCI   1
GRAND CITY NWS NOT AVBL
BUXTON         NOT AVBL
DEVILS LAKE    LGT SNOW  12   8  84 NW20G30   30.34R FOG     WCI  -6
6HR MIN TEMP:  12; 6HR MAX TEMP:  13; 6HR PCP: TRACE;

FARGO          LGT SNOW  18  12  77 NW24G36   30.25R WCI   0
6HR MIN TEMP:  15; 6HR MAX TEMP:  19; 6HR PCP: TRACE;

WAHPETON ARPT  CLOUDY    14  10  85 NW22G32   30.26R WCI  -4
$$

 *****  WEATHER ACROSS CENTRAL AND WESTERN NORTH DAKOTA  *****

CITY           SKY/WX    TMP DP  RH WIND       PRES   REMARKS
JAMESTOWN      CLOUDY     8   4  83 NW29G37   30.34R BLWGSNOWWCI -15
6HR MIN TEMP:   8; 6HR MAX TEMP:   8; 6HR PCP: TRACE;

BISMARCK       LGT SNOW   5   1  83 NW17      30.50R FOG     WCI -14
6HR MIN TEMP:   4; 6HR MAX TEMP:   5; 6HR PCP:  0.01;

MINOT          LGT SNOW   6   1  80 W28       30.46R WCI -17
6HR MIN TEMP:   5; 6HR MAX TEMP:   6; 6HR PCP: TRACE;

MINOT AFB      PTCLDY     4  -1  80 NW26      30.46R HAZE    WCI -19
6HR MIN TEMP:   4; 6HR MAX TEMP:   5; 6HR PCP: TRACE;

GARRISON         N/A      4   0  83 NW25G32   30.47R WCI -19
6HR MIN TEMP:   3; 6HR MAX TEMP:   4; 6HR PCP:  0.01;

WILLISTON      CLOUDY     0  -7  72 W16       30.60S WCI -20
6HR MIN TEMP:   0; 6HR MAX TEMP:   3; 6HR PCP: TRACE;

DICKINSON      CLEAR     -2  -8  76 NW15      30.48R WCI -22
6HR MIN TEMP:  -2; 6HR MAX TEMP:   0;

HETTINGER      CLEAR     -1  -7  75 NW17      30.50R WCI -22
6HR MIN TEMP:  -1; 6HR MAX TEMP:   1;

$$

 *****  OTHER OBSERVATIONS NORTHEAST NORTH DAKOTA  *****

CITY           SKY/WX    TMP DP  RH WIND       PRES   REMARKS
WALHALLA         N/A     16  16 100 NW17G28   30.31R WCI   0
LANGDON        LGT SNOW  12   9  85 NW24G32   30.28R WCI  -8
CAVALIER       LGT SNOW  18  14  86 NW25G32   30.29R WCI  -1
GRAFTON        FLURRIES  19  16  86 NW25G32   30.29R WCI   2
CANDO          CLOUDY    10   7  85 NW21G30   30.38R WCI  -9
FORT TOTTEN      N/A     11  10  95 NW10      29.95S WCI  -3
ROLLA          LGT SNOW   7   5  92 NW30G36   30.35R WCI -17
RUGBY          LGT SNOW   5   3  92 NW23G29   30.40S WCI -17
 ***** THE ABOVE OBSERVATIONS ARE NON NWS ARE NOT QUALITY
        CONTROLLED AND MAY MIS-REPORT RAIN FOR SNOW...
$$

 *****  OTHER OBSERVATIONS SOUTHEAST NORTH DAKOTA *****

CITY           SKY/WX    TMP DP  RH WIND       PRES   REMARKS
COOPERSTOWN    LGT SNOW  14  12  92 NW22G30   30.30R WCI  -4
VALLEY CITY    FLURRIES   9   7  92 NW21G31   30.33R WCI -11
OAKES          NOT AVBL
GWINNER        CLOUDY    14  10  85 NW23      30.32R WCI  -5
SHEYENNE NWR     N/A     13   6  73 NW16      29.95S WCI  -3
BUFFALO        NOT AVBL
WYNDMERE       NOT AVBL
 ***** THE ABOVE OBSERVATIONS ARE NON NWS ARE NOT QUALITY
       CONTROLLED AND MAY MIS-REPORT RAIN FOR SNOW...
$$

  *****  WEATHER ACROSS NORTHERN MINNESOTA  *****

CITY           SKY/WX    TMP DP  RH WIND       PRES   REMARKS
FLAG ISLAND    CLOUDY    21  18  86 N21G26    30.11R WCI   6
WARROAD        LGT SNOW  19  16  86 NW13G20   30.14R WCI   7
ROSEAU         LGT SNOW  19  16  86 NW20      30.16R WCI   4
HALLOCK        LGT SNOW  19  18  93 N22G31    30.24R WCI   3
THF RVR FALLS  FLURRIES  19  16  86 NW18      30.19R WCI   4
6HR MIN TEMP:  19; 6HR MAX TEMP:  21; 6HR PCP: TRACE;

HALSTAD          N/A     19  16  88 NW26        N/A  WCI   1
FOSSTON        LGT SNOW  18  16  93 NW17      30.15R WCI   2
BAUDETTE       LGT SNOW  21  16  81 N15       30.08R WCI   8
6HR MIN TEMP:  21; 6HR MAX TEMP:  24; 6HR PCP: TRACE;

WASKISH        FLURRIES  19  18  93 NW10G16   30.08R WCI   8
CROOKSTON      LGT SNOW  19  18  93 N26G35    30.23R WCI   1
$$
  *****  WEATHER ACROSS CENTRAL AND WEST MINNESOTA  *****

CITY           SKY/WX    TMP DP  RH WIND       PRES   REMARKS
BEMIDJI        FLURRIES  18  15  88 NW13      30.08R WCI   4
PARK RAPIDS    CLOUDY    19  12  74 NW16      30.09R WCI   4
6HR MIN TEMP:  16; 6HR MAX TEMP:  20; 6HR PCP: TRACE;

WADENA         MIX PCPN  18  12  79 NW18G24   30.11R WCI   2
DETROIT LAKES  LGT SNOW  19  18  93 NW21      30.16R WCI   3
MOORHEAD       MIX PCPN  16  12  86 NW25G32   30.24R WCI  -3
FERGUS FALLS   LGT SNOW  12  10  92 NW22      30.25S WCI  -7
ELBOW LAKE     LGT SNOW  12  10  91 NW17G25   30.21R WCI  -6
MORRIS MN      LGT SNOW  12   9  85 NW26G36   30.22R WCI  -8
STAPLES        CLOUDY    16  12  86 W14G20    30.09R WCI   1
WHEATON        LGT SNOW  16  10  79 W18G28    30.29R WCI  -1
$$
  *****  WEATHER ELSEWHERE ACROSS MINNESOTA  *****

CITY           SKY/WX    TMP DP  RH WIND       PRES   REMARKS
DULUTH         FLURRIES  20  17  88 W12       29.93R WCI   8
6HR MIN TEMP:  16; 6HR MAX TEMP:  20;

INTRNTL FALLS  LGT SNOW  21  16  81 N13       30.03R WCI   9
6HR MIN TEMP:  21; 6HR MAX TEMP:  24; 6HR PCP:  0.03;

ELY            PTCLDY    21  18  86 NW12      29.91R WCI   9
CLOQUET        FLURRIES  19  16  86 W8        29.96R WCI   9
BRAINERD       CLOUDY    19  14  81 W13G23    30.07R WCI   6
6HR MIN TEMP:  15; 6HR MAX TEMP:  19; 6HR PCP: TRACE;

HIBBING        MIX PCPN  21  17  84 NW17      29.96R WCI   7
6HR MIN TEMP:  16; 6HR MAX TEMP:  21; 6HR PCP:  0.01;

ALEXANDRIA     LGT SNOW  13   9  84 NW21G31   30.16R FOG     WCI  -5
6HR MIN TEMP:  11; 6HR MAX TEMP:  13; 6HR PCP: TRACE;

SAINT CLOUD    LGT SNOW  14  10  84 W17       30.12S FOG     WCI  -3
6HR MIN TEMP:  14; 6HR MAX TEMP:  15; 6HR PCP: TRACE;

MINNEAPOLIS    LGT SNOW  16   9  74 W20G28    30.15R WCI  -1
6HR MIN TEMP:  16; 6HR MAX TEMP:  19; 6HR PCP: TRACE;

$$

  *****  WEATHER ACROSS SOUTH DAKOTA  *****

CITY           SKY/WX    TMP DP  RH WIND       PRES   REMARKS
SIOUX FALLS    CLEAR      8   3  80 NW20G31   30.37R WCI -11
6HR MIN TEMP:   8; 6HR MAX TEMP:  14;

BROOKINGS      LGT SNOW   7   3  84 NW18G26   30.31R FOG     WCI -12
WATERTOWN      CLOUDY     8   3  80 NW20G30   30.29S WCI -11
6HR MIN TEMP:   6; 6HR MAX TEMP:   8; 6HR PCP: TRACE;

HURON          CLOUDY     7   1  76 NW23G30   30.44S WCI -14
6HR MIN TEMP:   7; 6HR MAX TEMP:  12; 6HR PCP: TRACE;

SISSETON         N/A     13   7  77 NW25G35   30.28R WCI  -7
ABERDEEN       FLURRIES  10   2  69 NW26G35   30.40R WCI -11
6HR MIN TEMP:   8; 6HR MAX TEMP:  10; 6HR PCP:  0.01;

MITCHELL       CLEAR      9   1  70 NW20G30   30.47R WCI -10
PIERRE         CLOUDY     7   0  73 NW30G36   30.50R WCI -16
6HR MIN TEMP:   7; 6HR MAX TEMP:  11; 6HR PCP: TRACE;

MOBRIDGE       CLOUDY     5  -3  69 NW25G35   30.44S WCI -18
RAPID CITY     CLEAR      4  -5  66 NW18      30.49R WCI -16
6HR MIN TEMP:  -2; 6HR MAX TEMP:   7;

$$

  *****  SOME WEATHER IN NEARBY STATES *****

CITY           SKY/WX    TMP DP  RH WIND       PRES   REMARKS
GLASGOW MT     MOCLDY    -2  -9  72 NW10      30.63R WCI -19
6HR MIN TEMP:  -3; 6HR MAX TEMP:   1;

GREAT FALLS MT CLOUDY     0  -7  72 N3        30.52S
6HR MIN TEMP:   0; 6HR MAX TEMP:   1;

CHEYENNE WY    CLOUDY   -12 -17  78 W6        30.31R WCI -26
6HR MIN TEMP: -12; 6HR MAX TEMP:   0;

SCOTTSBLUFF NE CLEAR     -2 -10  69 NW9       30.48S WCI -18
6HR MIN TEMP:  -3; 6HR MAX TEMP:   7;

OMAHA NE       CLEAR     16   5  62 NW15      30.47R WCI   1
6HR MIN TEMP:  16; 6HR MAX TEMP:  22;

DES MOINES IA  MOCLDY    18   8  65 NW21G30   30.36R WCI   1
6HR MIN TEMP:  18; 6HR MAX TEMP:  22;

DAVENPORT IA   MOCLDY    20  11  68 W22G30    30.25S WCI   3
6HR MIN TEMP:  19; 6HR MAX TEMP:  24;

CHICAGO IL     FLURRIES  23  13  65 W16G33    30.14S WCI  10
6HR MIN TEMP:  22; 6HR MAX TEMP:  24; 6HR PCP: TRACE;

EAU CLAIRE WI  LGT SNOW  16  10  77 W15       30.07S WCI   1
6HR MIN TEMP:  16; 6HR MAX TEMP:  19; 6HR PCP: TRACE;

LA CROSSE WI   CLOUDY    19   8  62 W17       30.16R WCI   4
6HR MIN TEMP:  19; 6HR MAX TEMP:  23; 6HR PCP: TRACE;

$$

  *****  SOME NATIONAL WEATHER *****

CITY           SKY/WX    TMP DP  RH WIND       PRES   REMARKS
LA GUARDIA NY  PTCLDY    44  34  67 SW3       30.00F
6HR MIN TEMP:  43; 6HR MAX TEMP:  47;                             C1F1C2F2C3F3C4F4C5F5C6F6C7F7C8F8C9F9CaFaCbFbCcFcCdFdCe!


USA.gov is the U.S. government's official web portal to all federal, state and local government web resources and services.